STARLINK-1225, 45187

Orbit data source: Space-Track

STARLINK-1225, 45187 is a payload satellite owned by SpaceX/Seattle (US) in LEO that was launched on Mon, 17 Feb 2020 UTC via an FALCON 9 launch vehicle from the Air Force Eastern Test Range (AFETR). Payload-class satellites include a variety of spacecraft equipped with specific instruments for various scientific and technological missions. These include communications satellites like Starlink; space stations such as the ISS; scientific satellites like the Hubble; Earth observation satellites from companies like Planet Labs, Umbra, and HawkEye 360; GPS; miniature CubeSats for education and research; and military/defense satellites.

Loading next visibility...
Identifier
45187, 2020-012K
Orbit
LEO
Country
Flag of USUS
Related business
Manufacturer
SpaceX/Seattle
Mission
Operational Commercial Communications
Bus & Motor
STARLINK, Unknown motor
Mass
260 kg wet, ~248 kg dry
Launch date (UTC)
2020-02-17 (6 years ago)
Launch vehicle
FALCON 9
Launch site
Air Force Eastern Test Range (AFETR)
Object type
Payload
Rocket body
Debris
Shape & HBR
Box + 1 Pan, 10.1 m
Radar Cross Section
13.562 m², Large (>1 m²)

Expand to show TLE details & history
Last TLE update: 15 hours ago

TLE from 15 hours ago
0 STARLINK-1225
1 45187U 20012K   26073.83579446 -.00002033  00000-0 -56557-4 0  9996
2 45187  53.1616  15.7666 0001342  93.7797 266.3357 15.30192720335724
Epoch: 2026-03-14T20:03Z
TLE epoch observation values (Epoch: 2026-03-14T20:03:32.641Z)
Latitude
-0.00003°
Longitude
-97.5707°
Altitude
476.196 km
Speed
7.629 km/s
True Right ascension
01h 03m 03s
True Declination
0° 00' 00"
Sunlit
Object was in daylight at epoch
Visualization orbit readout
Latitude
Unknown
Longitude
Unknown
Altitude
Unknown
Speed
Unknown
Apparent Right ascension
Unknown
Apparent Declination
Unknown
Sunlit
N/A
Visualization observer readout
Local Sidereal Time
15:15:57
Azimuth
Unknown
Elevation
Unknown
Doppler factor
Unknown
Orbital elements
Apogee altitude
476.413 km
Perigee altitude
474.573 km
Semi-major axis
6,853.63 km
Eccentricity
0.00013
Inclination
53.1616°
RAAN
15.7666°
Arg. of periapsis
93.7797°
True anomaly
266.32035°
Mean anomaly
266.3357°
Eccentric anomaly
266.32803°
Mean motion
3.82527 °/min
Orbital period
94.11 mins
BSTAR
-0.000056557
Loading maneuver chart data...
Computing Atmospheric mass density...

Documentation

Showing up to 5 results
|